Location: Unspecified
(38.0989°N, 0.6729°W)
Time: 16:59:03
(UTC+02:00)

ISS - Visible Passes

Search period start: 21 July 2018 00:00
Search period end: 31 July 2018 00:00
Orbit: 402 x 408 km, 51.6° (Epoch: 21 July)

Date Brightness Start Highest point End Pass type
(mag) Time Alt. Az. Time Alt. Az. Time Alt. Az.
21 Jul -1.7 04:36:34 10° NNW 04:39:29 28° NNE 04:42:23 10° E visible
21 Jul -3.0 06:13:02 10° WNW 06:15:57 29° SW 06:18:51 10° SSE visible
21 Jul -2.4 22:51:30 10° WSW 22:54:37 40° NW 22:57:44 10° NE visible
22 Jul -0.2 00:30:52 10° NNW 00:31:49 11° NNW 00:32:46 10° N visible
22 Jul -0.9 03:44:45 10° NNW 03:47:10 19° NNE 03:49:35 10° ENE visible
22 Jul -3.9 05:20:39 10° WNW 05:23:54 61° SW 05:27:09 10° SE visible
22 Jul -3.7 21:59:10 10° SW 22:02:25 80° NW 22:05:42 10° NE visible
22 Jul -0.5 23:37:26 10° WNW 23:39:21 14° NNW 23:41:17 10° NNE visible
23 Jul -0.3 02:53:03 10° NNW 02:53:19 11° N 02:53:19 11° N visible
23 Jul -1.0 22:44:24 10° WNW 22:46:57 21° NNW 22:49:32 10° NNE visible
24 Jul -1.8 21:51:38 10° W 21:54:38 33° NNW 21:57:38 10° NE visible
25 Jul -0.6 22:37:47 10° NW 22:39:24 13° NNW 22:41:01 10° N visible
26 Jul -0.9 21:44:35 10° WNW 21:46:56 18° NNW 21:49:18 10° NNE visible
27 Jul -0.3 01:01:15 10° N 01:01:45 11° N 01:01:45 11° N visible
29 Jul -0.4 00:52:28 10° NNW 00:53:04 13° N 00:53:04 13° N visible
30 Jul -0.8 00:00:45 10° N 00:02:10 12° NNE 00:02:28 12° NNE visible
